Regional Weather Roundup
Issued by NWS

Home | Current Version | Previous Version | Text Only | Print | Product List | Glossary On
Versions: 1 2 3 4 5 6 7 8 9 10 11 12 13 14 15 16 17 18 19 20 21 22 23 24 25 26 27 28 29 30 31 32 33 34 35 36 37 38 39 40 41 42 43 44 45 46 47 48 49 50
218
ASUS43 KDTX 210010
RWRMI
MICHIGAN HOURLY REGIONAL WEATHER ROUNDUP
NATIONAL WEATHER SERVICE DETROIT/PONTIAC MI
800 PM EDT WED SEP 20 2017

NOTE: "FAIR" INDICATES FEW OR NO CLOUDS BELOW 12,000 FEET WITH NO
SIGNIFICANT WEATHER AND/OR OBSTRUCTION TO VISIBILITY.

MIZ047>049-052>055-059>063-066>070-074>076-081>083-210100-
SOUTHEAST LOWER MICHIGAN

CITY           SKY/WX    TMP DP  RH WIND       PRES   REMARKS
ADRIAN         CLEAR     75  66  73 CALM      29.99S
6HR MIN TEMP:  75; 6HR MAX TEMP:  83;

ALMA           CLEAR     76  57  51 CALM      29.94S
ANN ARBOR      CLEAR     74  65  73 SE7       29.98R
BAD AXE        CLEAR     71  64  79 CALM      29.99R
CARO           CLEAR     72  65  78 CALM      29.97R
DETROIT CITY   CLEAR     76  65  68 SE5       29.98S
6HR MIN TEMP:  76; 6HR MAX TEMP:  81;

DETROIT        PTCLDY    75  67  76 SE5       29.99S
6HR MIN TEMP:  75; 6HR MAX TEMP:  82;

FLINT          CLEAR     75  62  64 SE5       29.97R
6HR MIN TEMP:  73; 6HR MAX TEMP:  83;

GROSSE ILE     CLEAR     72  67  84 SE3       29.98S
HILLSDALE      CLOUDY    73  66  78 SE3       29.98S
HOWELL         CLEAR     74  64  68 SE6       29.97S
6HR MIN TEMP:  74; 6HR MAX TEMP:  83;


CITY           SKY/WX    TMP DP  RH WIND       PRES   REMARKS
JACKSON        CLEAR     79  64  60 SE6       29.97S
6HR MIN TEMP:  79; 6HR MAX TEMP:  84;

LAMBERTVILLE   CLEAR     74  69  86 CALM      29.98S
6HR MIN TEMP:  74; 6HR MAX TEMP:  86;

LANSING        CLEAR     78  61  55 S5        29.96R
6HR MIN TEMP:  78; 6HR MAX TEMP:  87;

LAPEER         FAIR      73  64  72 SE3       29.98F
6HR MIN TEMP:  73; 6HR MAX TEMP:  82;

MASON          CLEAR     78  63  58 CALM      29.96S
MONROE         CLEAR     73  68  83 CALM      29.98S
6HR MIN TEMP:  73; 6HR MAX TEMP:  82;

MT. CLEMENS    CLEAR     70  68  91 SE3       29.98S
6HR MIN TEMP:  70; 6HR MAX TEMP:  80;

PONTIAC        PTCLDY    76  66  71 SE5       29.98S
6HR MIN TEMP:  76; 6HR MAX TEMP:  81;

PORT HOPE        N/A     70  67  90 CALM      29.97R
6HR MIN TEMP:  69; 6HR MAX TEMP:  75;

PORT HURON     CLEAR     70  66  88 CALM      29.99S
TRI CITIES     CLEAR     74  65  73 SE5       29.96R
6HR MIN TEMP:  74; 6HR MAX TEMP:  82;

MIDLAND        FAIR      75  64  67 E3        29.94S
6HR MIN TEMP:  75; 6HR MAX TEMP:  82;

TROY           CLEAR     77  65  66 CALM      30.00S
SAGINAW HB     CLEAR     73  63  68 SE5       29.96R
$$
MIZ043>046-050>051-056>058-064>065-071>073-077>080-210100-
SOUTHWEST LOWER MICHIGAN

CITY           SKY/WX    TMP DP  RH WIND       PRES   REMARKS
BATTLE CREEK   CLEAR     79  68  69 S6        29.96R
6HR MIN TEMP:  79; 6HR MAX TEMP:  86;

BENTON HARBOR  CLEAR     80  68  66 SE6       29.90S
6HR MIN TEMP:  80; 6HR MAX TEMP:  87;

BIG RAPIDS     CLEAR     75  62  64 CALM      29.92S
6HR MIN TEMP:  74; 6HR MAX TEMP:  82;

COLDWATER      CLEAR     77  70  79 CALM      29.96S
6HR MIN TEMP:  77; 6HR MAX TEMP:  84;

FREMONT        FAIR      80  66  62 S5        29.89S
HOLLAND        CLEAR     80  67  64 SE7       29.91S
6HR MIN TEMP:  80; 6HR MAX TEMP:  89;

GRAND RAPIDS   PTCLDY    79  68  69 S7        29.92S
6HR MIN TEMP:  79; 6HR MAX TEMP:  87;

IONIA          FAIR      79  64  58 S6        29.93S
6HR MIN TEMP:  79; 6HR MAX TEMP:  87;

KALAMAZOO      CLEAR     81  66  60 S5        29.94S
6HR MIN TEMP:  81; 6HR MAX TEMP:  87;

LUDINGTON      CLEAR     79  65  62 S6        29.86S
6HR MIN TEMP:  79; 6HR MAX TEMP:  85;

MARSHALL       CLEAR     77  67  71 SE3       29.96R
6HR MIN TEMP:  77; 6HR MAX TEMP:  85;

MOUNT PLEASANT CLEAR     74  63  67 E3        29.93S
6HR MIN TEMP:  74; 6HR MAX TEMP:  85;

MUSKEGON       PTCLDY    82  67  60 SE7       29.89S
6HR MIN TEMP:  82; 6HR MAX TEMP:  90;

SOUTH HAVEN    CLEAR     82  68  63 SE3       29.90S
$$
MIZ016>042-210100-
NORTHERN LOWER MICHIGAN

CITY           SKY/WX    TMP DP  RH WIND       PRES   REMARKS
ALPENA         PTCLDY    66  66 100 SE6       29.96S FOG
6HR MIN TEMP:  66; 6HR MAX TEMP:  76;

BEAVER ISLAND  CLEAR     72  64  75 SE7       29.89F
6HR MIN TEMP:  72; 6HR MAX TEMP:  78;

BELLAIRE       CLEAR     75  63  67 CALM      29.90R
6HR MIN TEMP:  75; 6HR MAX TEMP:  81;

CADILLAC       CLEAR     76  62  60 SE8       29.93S
CHARLEVOIX     CLEAR     74  64  71 SE3       29.93R
6HR MIN TEMP:  74; 6HR MAX TEMP:  82;

FRANKFORT      CLEAR     80  66  62 CALM      29.87R
GAYLORD        CLEAR     70  62  76 S8        29.95R
6HR MIN TEMP:  70; 6HR MAX TEMP:  78;

GRAYLING       CLEAR     71  63  76 SE5       29.96S
6HR MIN TEMP:  71; 6HR MAX TEMP:  77;

HARBOR SPRINGS PTCLDY    73  64  75 E3        29.91R
HOUGHTON LAKE  CLEAR     71  63  75 SE5       29.95F
6HR MIN TEMP:  71; 6HR MAX TEMP:  78;

MANISTEE       CLEAR     79  66  64 E3        29.86R
OSCODA         CLEAR     71  65  83 S8        29.97R HAZE
6HR MIN TEMP:  71; 6HR MAX TEMP:  79;

PELLSTON       CLEAR     72  65  78 SE7       29.91S
6HR MIN TEMP:  72; 6HR MAX TEMP:  82;

ROGERS CITY    CLEAR     71  66  83 SE10      29.94S
TRAVERSE CITY  MOCLDY    78  64  61 SE5       29.87S
6HR MIN TEMP:  78; 6HR MAX TEMP:  84;

$$
MIZ007>008-015-210100-
EASTERN UPPER MICHIGAN

CITY           SKY/WX    TMP DP  RH WIND       PRES   REMARKS
KINROSS        CLOUDY    69  64  84 SE12      29.93R
6HR MIN TEMP:  69; 6HR MAX TEMP:  75;

MACKINAC ISLAN CLEAR     69  65  86 SE7       29.91S
6HR MIN TEMP:  68; 6HR MAX TEMP:  74;

NEWBERRY       CLEAR     69  68  95 SE7       29.89S
6HR MIN TEMP:  69; 6HR MAX TEMP:  76;

S. S. MARIE    PTCLDY    69  65  86 E7        29.92R
6HR MIN TEMP:  69; 6HR MAX TEMP:  73;

MUNISING         N/A     72  66  81 VRB6      29.84S
6HR MIN TEMP:  69; 6HR MAX TEMP:  76;

$$
MIZ004>006-011>014-085-210100-
CENTRAL UPPER MICHIGAN

CITY           SKY/WX    TMP DP  RH WIND       PRES   REMARKS
MANISTIQUE     CLEAR     65  59  81 CALM      29.88R
6HR MIN TEMP:  65; 6HR MAX TEMP:  72;

ESCANABA       CLOUDY    68  65  90 SE7       29.84F
6HR MIN TEMP:  66; 6HR MAX TEMP:  73;

MENOMINEE      CLOUDY    72  66  81 S6        29.84S
6HR MIN TEMP:  71; 6HR MAX TEMP:  77;

SAWYER-GWINN   MOCLDY   N/A N/A N/A S8        29.86R
$$
MIZ001>003-009>011-084-210100-
WESTERN UPPER MICHIGAN

CITY           SKY/WX    TMP DP  RH WIND       PRES   REMARKS
IRON MOUNTAIN  TSTM      69  66  90 CALM      29.85R FOG
6HR MIN TEMP:  68; 6HR MAX TEMP:  73; 6HR PCP:  0.26;

HOUGHTON       CLOUDY    67  65  93 SW5       29.83R FOG
6HR MIN TEMP:  67; 6HR MAX TEMP:  73; 6HR PCP: TRACE;

COPPER HARBOR    N/A     68  64  87 SW8       29.80F
6HR MIN TEMP:  65; 6HR MAX TEMP:  70;

IRONWOOD       CLOUDY    69  61  75 W3        29.85R
6HR MIN TEMP:  67; 6HR MAX TEMP:  73;

$$

ABBREVIATIONS USED IN REMARKS
   TC - TEMPERATURE IN CELSIUS
  WCI - WIND CHILL INDEX
   HX - HEAT INDEX
  VSB - VISIBILITY





USA.gov is the U.S. government's official web portal to all federal, state and local government web resources and services.